Terminal Aerodrome Forecast
Issued by NWS Melbourne, FL

Home | Current Version | Previous Version | Text Only | Print | Product List | Glossary On
Versions: 1 2 3 4 5 6 7 8 9 10 11 12 13 14 15 16 17 18 19 20 21 22 23 24
000
FTUS42 KMLB 220300 AAA
TAFMCO
TAF AMD
KMCO 220301Z 2203/2224 VRB02KT P6SM -RA VCTS SCT040CB BKN090 BKN140
     FM220600 VRB04KT 6SM -SHRA BR SCT005 BKN020 OVC090
     FM221500 18009KT P6SM VCSH SCT020 BKN050 BKN100=

USA.gov is the U.S. government's official web portal to all federal, state and local government web resources and services.